www.pogodaiklimat.ru

Погода и климат >> Архив погоды >> Индия >> Kota


ПОГОДА в Kota

  • Прогноз погоды в Kota
  • Монитор погоды в Kota
  • Климат города

АРХИВ ПОГОДЫ в Kota

Время (UTC), дата Ветер
(напр.,м/с)
 
Видим.   Явления Облачность Т
(С)
Тd
(С)
f
(%)
Тe
(С)
Тes
(С)
Комфортность P
(гПа)
Po
(гПа)
Тmin
(С)
Tmax
(С)
R
(мм)
R24
(мм)
S
(см)
00 8.12 штиль 0 4000 м ясно +12.0 +8.8 81 +11 +11 1016.0 1016.0
03 8.12 штиль 0 2000 м мгла ясно +12.4 +9.2 81 +12 +14 1017.3 1017.0 +9.1 +26.7
06 8.12 штиль 0 2000 м мгла ясно +22.8 +8.0 39 +24 +36 комфорт 1017.6 1018.0
09 8.12 В 1 4000 м ясно +26.4 +4.8 25 +26 +34 жарко 1013.5 1014.0
12 8.12 В 1 4000 м ясно +24.6 +5.9 30 +24 +24 комфорт 1013.4 1013.0 +27.2
15 8.12 штиль 0 4000 м ясно +17.6 +7.8 53 +18 +18 1015.3 1015.0
18 8.12 штиль 0 4000 м ясно +14.8 +7.1 60 +15 +15 1016.2 1016.0
21 8.12 штиль 0 4000 м ясно +14.0 +8.0 67 +14 +14 1015.9 1016.0
00 9.12 штиль 0 4000 м ясно +11.2 +6.1 71 +11 +11 1016.2 1016.0
03 9.12 штиль 0 2000 м мгла ясно +15.0 +9.2 68 +15 +17 1017.0 1017.0 +9.5 +27.2
06 9.12 штиль 0 2000 м мгла ясно +22.4 +6.4 35 +23 +35 комфорт 1015.8 1016.0
09 9.12 С 1 4000 м мгла ясно +25.2 +5.8 29 +25 +33 комфорт 1012.5 1013.0
12 9.12 штиль 0 4000 м мгла ясно +24.0 +6.7 33 +24 +24 комфорт 1011.9 1012.0 +26.2
15 9.12 штиль 0 4000 м мгла ясно +16.0 +7.2 56 +16 +16 1013.9 1014.0
18 9.12 штиль 0 4000 м мгла ясно +14.4 +8.9 70 +14 +14 1014.0 1014.0
21 9.12 штиль 0 4000 м мгла ясно +13.4 +8.6 73 +13 +13 1013.4 1013.0
00 10.12 штиль 0 4000 м мгла ясно +11.4 +7.3 76 +11 +11 1014.1 1014.0
03 10.12 штиль 0 2000 м мгла ясно +12.8 +7.0 68 +12 +14 1015.4 1015.0 +9.5 +26.2
06 10.12 штиль 0 2000 м мгла ясно +22.8 +5.3 32 +23 +35 комфорт 1014.5 1015.0
09 10.12 штиль 0 2000 м мгла ясно +25.6 +6.4 29 +25 +34 комфорт 1011.0 1011.0
12 10.12 штиль 0 4000 м мгла 3/0
[Ci fib]
+23.8 +6.9 34 +24 +24 комфорт 1011.4 1011.0 +26.1
15 10.12 штиль 0 4000 м ясно +17.2 +8.2 55 +17 +17 1013.6 1014.0
18 10.12 штиль 0 4000 м ясно +14.2 +9.1 71 +14 +14 1014.5 1015.0
21 10.12 штиль 0 4000 м ясно +13.0 +8.2 73 +13 +13 1014.0 1014.0
00 11.12 штиль 0 4000 м ясно +11.0 +9.4 90 +10 +10 1014.4 1014.0
03 11.12 штиль 0 2000 м мгла ясно +15.6 +8.1 61 +15 +17 1016.6 1017.0 +10.3 +26.1
06 11.12 В 1 2000 м мгла 8/0
[Ac trans Ci fib]
+22.4 +8.5 41 +24 +31 комфорт 1016.2 1016.0
09 11.12 штиль 0 2000 м мгла 6/4 600 м
[Sc Ac trans]
+25.4 +7.8 33 +26 +30 жарко 1012.9 1013.0
12 11.12 ЮВ 1 4000 м мгла 5/0
[Ac trans Ci fib]
+23.8 +8.0 36 +24 +24 комфорт 1012.6 1013.0 +26.4
15 11.12 штиль 0 4000 м 3/0
[Ac trans]
+20.0 +9.5 51 +21 +21 комфорт 1014.5 1015.0
18 11.12 штиль 0 4000 м 4/4 600 м
[Sc]
+14.8 +8.5 66 +15 +15 1016.0 1016.0
21 11.12 штиль 0 4000 м 4/4 600 м
[Sc]
+12.6 +7.7 72 +12 +12 1015.6 1016.0
00 12.12 штиль 0 4000 м 4/4 600 м
[Sc]
+11.8 +8.1 78 +11 +11 1016.0 1016.0
03 12.12 штиль 0 2000 м мгла {морось} 9/5 600 м
[Sc diur, vesp Ac trans Ci fib]
+18.0 +13.4 74 +18 +19 1016.6 1017.0 +11.6 +26.4 0.0
06 12.12 штиль 0 4000 м мгла ясно +22.6 +11.1 48 +25 +37 комфорт 1016.6 1017.0
09 12.12 С 1 4000 м мгла 3/3 600 м
[Cu hum]
+25.2 +10.5 40 +26 +32 жарко 1013.0 1013.0
12 12.12 С 1 4000 м 1/1 600 м
[Sc]
+23.4 +9.9 42 +25 +25 комфорт 1013.5 1014.0 +25.5
15 12.12 штиль 0 4000 м 3/0
[Ci fib]
+18.6 +10.9 61 +19 +19 1015.7 1016.0
18 12.12 штиль 0 4000 м 3/0
[Ac trans]
+15.8 +11.4 75 +16 +16 1017.4 1017.0
21 12.12 штиль 0 4000 м 4/0
[Ac trans Ci fib]
+14.8 +10.6 76 +15 +15 1016.5 1017.0
00 13.12 штиль 0 4000 м 4/0
[Ci fib]
+13.4 +9.1 75 +13 +13 1018.3 1018.0
03 13.12 СЗ 1 1000 м дымка ясно +14.4 +11.4 82 +15 +16 1020.7 1021.0 +10.9 +25.5
06 13.12 С 2 1000 м мгла ясно +19.2 +11.6 61 +21 +31 комфорт 1021.1 1021.0
09 13.12 СВ 1 1000 м мгла 4/3 600 м
[Sc diur, vesp Ac trans]
+22.2 +11.5 51 +24 +29 комфорт 1018.1 1018.0
12 13.12 С 2 2000 м мгла 4/3 600 м
[Sc diur, vesp Ac trans]
+20.2 +10.2 53 +22 +22 комфорт 1017.9 1018.0 +22.3
15 13.12 штиль 0 2000 м мгла 4/1 600 м
[Sc diur, vesp Ac trans]
+16.6 +9.3 62 +17 +17 1020.6 1021.0
18 13.12 штиль 0 2000 м мгла 3/0
[Ac trans]
+14.2 +10.4 78 +14 +14 1020.9 1021.0
21 13.12 штиль 0 2000 м мгла 3/0
[Ac trans]
+13.6 +10.1 79 +13 +13 1020.2 1020.0
00 14.12 штиль 0 2000 м мгла 3/0
[Ci fib]
+11.6 +8.8 83 +11 +11 1022.1 1022.0
03 14.12 штиль 0 1000 м мгла ясно +11.4 +8.6 83 +11 +13 1023.8 1024.0 +9.5 +22.3
06 14.12 С 1 1000 м мгла ясно +18.8 +10.3 58 +21 +31 комфорт 1023.9 1024.0
09 14.12 С 1 4000 м мгла ясно +21.6 +6.8 38 +22 +31 комфорт 1020.0 1020.0
12 14.12 С 1 4000 м мгла ясно +19.8 +6.2 41 +22 +22 комфорт 1020.5 1021.0 +22.2
15 14.12 С 1 4000 м мгла ясно +15.6 +6.1 53 +17 +17 1023.1 1023.0
18 14.12 СЗ 1 4000 м мгла ясно +12.6 +5.8 63 +14 +14 1023.5 1024.0
21 14.12 штиль 0 4000 м мгла ясно +11.6 +5.6 67 +11 +11 1023.2 1023.0

 

Местоположение метеостанции Kota (Rajasthan, Индия): широта 25.15 долгота 75.85 высота над уровнем моря 274 м.

В архиве по умолчанию представлена погода в Kota за последнюю неделю. Архивные данные за месяц целиком и за предыдущие месяцы, начиная с января 2011 года, Вы можете получить, выбрав интересующий диапазон дат из раскрывающегося списка и нажав кнопку "Ввод!".


*Определитесь, кто Вы:
робот инопланетянин человек

Внимание! Время в таблицах - всемирное. Для получения местного времени необходимо прибавить поправку, которая в Kota равна 5.5 ч.

Смотрите также архив погоды в соседних городах и на ближайших метеорологических станциях:

Погода в Sheopur (Madhya Pradesh, Индия) (101 км)
Погода в Bhilwara (Rajasthan, Индия) (125 км)
Погода в Chittorgarh (Rajasthan, Индия) (127 км)
Погода в Rajgarh (Madhya Pradesh, Индия) (155 км)
Погода в Guna (Madhya Pradesh, Индия) (158 км)
Погода в Shivpuri (Madhya Pradesh, Индия) (182 км)
Погода в Jaipur (Rajasthan, Индия) (186 км)
Погода в Ajmer (Rajasthan, Индия) (190 км)
Погода в Shajapur (Madhya Pradesh, Индия) (197 км)
Погода в Maharana Pratap Airport (Rajasthan, Индия) (207 км)

Пояснения к столбцам:

Ветер - указаны скорость ветра в м/с - средняя за 10 мин, порывы в срок и между сроками (в фигурных скобках) и направление, откуда дует ветер: С - северный, СВ - северо-восточный, В - восточный, ЮВ - юго-восточный, Ю - южный, ЮЗ - юго-западный, З - западный, СЗ - северо-западный.
Видимость - горизонтальная дальность видимости в метрах или километрах. При видимости от 1 до 10 км при отсутствии осадков обычно наблюдается дымка, при ухудшении видимости до 1 км и менее - туман. В сухую погоду видимость может ухудшаться дымом, пылью или мглою.
Явления - указаны атмосферные явления, наблюдавшиеся в срок или в последний час перед сроком; фигурными скобками обозначены явления, наблюдавшиеся между сроками (за 1-3 часа до срока); квадратными скобками обозначены град или гололедные отложения с указанием их диаметра в мм.
Облачность - указаны через наклонную черту общая и нижняя облачность в баллах и высота нижней границы облаков в метрах; квадратными скобками обозначены формы облаков: Ci - перистые, Cs - перисто-слоистые, Cc - перисто-кучевые, Ac - высококучевые, As - высокослоистые, Sc - слоисто-кучевые, Ns - слоисто-дождевые, Cu - кучевые, Cb - кучево-дождевые. Подробнее классификацию облаков см. в Атласе облаков (PDF).
T - Температура воздуха - температура, измеренная на высоте 2 м над землей.
Td - Температура точки росы - температура, при понижении до которой содержащийся в воздухе водяной пар достигнет насыщения.
f - Относительная влажность воздуха - влажноcть воздуха, измеренная на высоте 2 м над землей.
Te - Эффективная температура - температура, которую ощущает одетый по сезону человек в тени. Характеристика душности погоды. При расчете учитывается влияние влажности воздуха и скорости ветра на теплоощущения человека.
Tes - Эффективная температура на солнце - температура, которую ощущает человек, с поправкой на солнечный нагрев. Характеристика знойности погоды. Зависит от высоты солнца над горизонтом, облачности и скорости ветра. Ночью, в пасмурную погоду, а также при ветре 12 м/с и более поправка равна нулю.
P - Атмосферное давление - приведенное к уровню моря атмосферное давление.
Po - Атмосферное давление - измеренное на уровне метеостанции атмосферное давление.
Tmin - Минимальная температура - минимум температуры воздуха на высоте 2 м над землей.
Tmax - Максимальная температура - максимум температуры воздуха на высоте 2 м над землей.
R - Количество осадков - Количество выпавших осадков за период времени, мм. При наведении курсора мыши на число - период времени, за который выпало указанное количество осадков.
R24 - Количество осадков - Количество выпавших осадков за 24 часа, мм.
S - Снежный покров - Высота снежного покрова, см. При наведении курсора мыши на число - состояние снежного покрова и степень покрытия местности в баллах.